TimeCDT,TemperatureF,Dew PointF,Humidity,Sea Level PressureIn,VisibilityMPH,Wind Direction,Wind SpeedMPH,Gust SpeedMPH,PrecipitationIn,Events,Conditions,WindDirDegrees,DateUTC
12:55 AM,60.1,54.0,80,29.85,10.0,NNW,4.6,-,0.00,,Clear,340,2013-08-02 05:55:00
1:53 AM,57.2,53.6,88,29.85,1.5,NE,3.5,-,N/A,,Clear,50,2013-08-02 06:53:00
1:55 AM,55.9,53.1,90,29.85,10.0,ENE,3.5,-,N/A,,Partly Cloudy,60,2013-08-02 06:55:00
2:48 AM,55.4,51.8,88,29.84,1.0,South,3.5,-,N/A,,Mostly Cloudy,180,2013-08-02 07:48:00
2:55 AM,55.9,53.1,90,29.84,3.0,Calm,Calm,-,N/A,,Mostly Cloudy,0,2013-08-02 07:55:00
2:59 AM,55.4,53.6,94,29.84,1.5,Calm,Calm,-,N/A,,Mostly Cloudy,0,2013-08-02 07:59:00
3:12 AM,53.6,51.8,94,29.85,0.5,Calm,Calm,-,N/A,Fog,Fog,0,2013-08-02 08:12:00
3:29 AM,53.6,51.8,94,29.84,0.2,Calm,Calm,-,N/A,Fog,Fog,0,2013-08-02 08:29:00
3:38 AM,55.4,53.6,94,29.84,0.5,Calm,Calm,-,N/A,Fog,Fog,0,2013-08-02 08:38:00
3:45 AM,53.6,51.8,94,29.85,1.0,WSW,4.6,-,N/A,,Partly Cloudy,250,2013-08-02 08:45:00
3:55 AM,52.0,50.0,93,29.86,1.2,WSW,3.5,-,N/A,,Partly Cloudy,250,2013-08-02 08:55:00
4:05 AM,53.6,50.0,88,29.86,0.5,WSW,4.6,-,N/A,Fog,Fog,250,2013-08-02 09:05:00
4:26 AM,53.6,50.0,88,29.87,4.0,West,5.8,-,N/A,,Clear,280,2013-08-02 09:26:00
4:34 AM,53.6,51.8,94,29.87,1.0,West,5.8,-,N/A,,Mist,280,2013-08-02 09:34:00
4:41 AM,53.6,51.8,94,29.87,1.0,West,6.9,-,N/A,,Partly Cloudy,270,2013-08-02 09:41:00
4:55 AM,54.0,51.1,90,29.87,1.0,NNW,5.8,-,N/A,,Partly Cloudy,340,2013-08-02 09:55:00
4:57 AM,53.6,51.8,94,29.87,3.0,NNW,5.8,-,N/A,,Partly Cloudy,340,2013-08-02 09:57:00
5:55 AM,54.0,51.1,90,29.88,10.0,NW,6.9,-,N/A,,Partly Cloudy,320,2013-08-02 10:55:00
6:55 AM,57.0,53.1,87,29.90,10.0,NW,6.9,-,N/A,,Clear,310,2013-08-02 11:55:00
7:55 AM,61.0,54.0,78,29.90,10.0,NNW,8.1,-,N/A,,Clear,330,2013-08-02 12:55:00
8:55 AM,64.0,55.0,73,29.89,10.0,NNW,10.4,-,N/A,,Clear,330,2013-08-02 13:55:00
9:55 AM,68.0,50.0,52,29.91,10.0,NW,9.2,-,N/A,,Partly Cloudy,310,2013-08-02 14:55:00
10:55 AM,69.1,50.0,51,29.92,10.0,NW,9.2,-,N/A,,Partly Cloudy,310,2013-08-02 15:55:00
11:55 AM,71.1,50.0,47,29.92,10.0,NW,10.4,-,N/A,,Scattered Clouds,320,2013-08-02 16:55:00
12:55 PM,73.0,48.0,41,29.92,10.0,NW,15.0,19.6,N/A,,Scattered Clouds,320,2013-08-02 17:55:00
1:55 PM,72.0,48.0,43,29.94,10.0,NW,9.2,-,N/A,,Scattered Clouds,320,2013-08-02 18:55:00
2:55 PM,75.0,46.9,37,29.94,10.0,WNW,13.8,21.9,N/A,,Scattered Clouds,300,2013-08-02 19:55:00
3:55 PM,73.9,48.0,40,29.95,10.0,NNW,9.2,-,N/A,,Scattered Clouds,340,2013-08-02 20:55:00
4:55 PM,75.0,46.9,37,29.95,10.0,NW,11.5,19.6,N/A,,Mostly Cloudy,310,2013-08-02 21:55:00
5:55 PM,73.9,46.9,38,29.94,10.0,North,13.8,-,N/A,,Scattered Clouds,360,2013-08-02 22:55:00
6:55 PM,72.0,46.9,41,29.96,10.0,NNW,10.4,-,N/A,,Scattered Clouds,340,2013-08-02 23:55:00
7:55 PM,70.0,48.0,46,29.98,10.0,NNW,6.9,-,N/A,,Partly Cloudy,330,2013-08-03 00:55:00
8:55 PM,64.9,48.9,56,30.00,10.0,NW,3.5,-,N/A,,Scattered Clouds,320,2013-08-03 01:55:00
9:55 PM,63.0,48.0,58,30.02,10.0,North,5.8,-,N/A,,Scattered Clouds,350,2013-08-03 02:55:00
10:55 PM,60.1,48.0,64,30.04,10.0,NW,3.5,-,N/A,,Partly Cloudy,320,2013-08-03 03:55:00
11:55 PM,59.0,48.9,69,30.04,10.0,NNW,3.5,-,N/A,,Clear,330,2013-08-03 04:55:00